Location: ??????
(44.5958°N, 34.0092°E)
Time: 18:34:01
(UTC+00:00)

Nadezhda 3 Rocket - Pass Details

Date: 06 June 2020
Orbit: 958 x 999 km, 82.9° (Epoch: 07 July)

Event Time Altitude Azimuth Distance (km) Brightness Sun altitude
Rises 23:59:45 0° 350° (N) 3,702 7.8 -15.8°
Reaches altitude 10° 00:02:17 10° 349° (N) 2,755 7.0 -15.6°
Maximum altitude 00:08:36 77° 265° (W) 1,022 4.0 -14.9°
Enters shadow 00:14:21 13° 181° (S) 2,545 5.7 -14.3°
